Location: Camaret
(48.2753°N, 4.5961°W)
Time: 00:02:21
(UTC+00:00)

SJ 16-02 - Pass Details

Date: 29 October 2020
Orbit: 605 x 617 km, 75.0° (Epoch: 26 November)

Event Time Altitude Azimuth Distance (km) Brightness Sun altitude
Rises 20:07:57 0° 342° (NNW) 2,897 5.2 -31.0°
Reaches altitude 10° 20:10:15 10° 347° (NNW) 1,989 4.2 -31.4°
Enters shadow 20:10:41 13° 349° (NNW) 1,822 4.0 -31.5°
